Regional Weather Roundup
Issued by NWS Lake Charles, LA

Home | Current Version | Previous Version | Text Only | Print | Product List | Glossary On
Versions: 1 2 3 4 5 6 7 8 9 10 11 12 13 14 15 16 17 18 19 20 21 22 23 24 25 26 27 28 29 30 31 32 33 34 35 36 37 38 39 40 41 42 43 44 45 46 47 48 49 50
009
ASUS44 KLCH 241610
RWRLCH
REGIONAL WEATHER ROUNDUP
NATIONAL WEATHER SERVICE LAKE CHARLES LA
1100 AM CDT WED AUG 24 2016

Note: "fair" indicates few or no clouds below 12,000 feet with no
significant weather and/or obstructions to visibility.


ACROSS SOUTHEAST TEXAS

CITY           SKY/WX    TMP DP  RH WIND       PRES   REMARKS
BEAUMONT       MOSUNNY   90  76  63 S6        30.14S HX 101
BEAUMONT CITY  FAIR      90  75  62 S5        30.15S HX 100
ORANGE         MOSUNNY   89  71  55 S3        30.16S
JASPER           N/A     88  77  70 S6        30.18S
$$

ACROSS CENTRAL LOUISIANA

CITY           SKY/WX    TMP DP  RH WIND       PRES   REMARKS
LEESVILLE      MOSUNNY   87  75  67 VRB3      30.17R
FULLERTON      FAIR      89  74  60 CALM      30.15R
ALEXANDRIA INT SUNNY     88  76  67 S6        30.15S
ESLER FIELD    SUNNY     88  76  67 SE3       30.17S
DERIDDER       FAIR      87  76  70 NE3       30.19R
OAKDALE        PTSUNNY   88  76  67 CALM      30.17S
OPELOUSAS      FAIR      88  76  69 CALM      30.17S
$$

ACROSS SOUTHWEST AND SOUTH CENTRAL LOUISIANA

CITY           SKY/WX    TMP DP  RH WIND       PRES   REMARKS
SULPHUR        MOSUNNY   90  78  67 E8        30.17R HX 103
LAKE CHARLES   MOSUNNY   89  76  65 CALM      30.16R HX 100
CHENNAULT INT  NOT AVBL
CAMERON PHI    SUNNY     86  77  74 SE6       30.15S
DEQUINCY       FAIR      87  75  66 E3        30.17R
JENNINGS       NOT AVBL
LAFAYETTE      MOSUNNY   89  76  65 NE6       30.16F HX 100
NEW IBERIA     MOSUNNY   89  76  65 NE7       30.17S HX 100
ABBEVILLE      FAIR      88  78  73 CALM      30.16F HX 101
PATTERSON      MOSUNNY   89  78  70 NE5       30.16F HX 103
SALT POINT       N/A     89  76  65 CALM      30.14S HX 100
$$

SELECTED SITES ACROSS THE REGION

CITY           SKY/WX    TMP DP  RH WIND       PRES   REMARKS
HOUSTON BUSH   MOSUNNY   87  77  72 S7        30.14R
HOUSTON HOBBY  PTSUNNY   89  77  67 S6        30.14R HX 101
GALVESTON      MOSUNNY   88  80  77 SE10      30.15R HX 104
COLLEGE STAT   MOSUNNY   85  76  74 S12       30.15R
CONROE         MOSUNNY   86  75  69 S10       30.15S
HUNTSVILLE     MOSUNNY   87  73  62 S8        30.16R
LUFKIN         MOSUNNY   83  75  77 CALM      30.16S
SHREVEPORT     MOSUNNY   87  78  74 S7        30.15R HX 100
MONROE         SUNNY     89  77  67 CALM      30.18R HX 101
NATCHEZ MS     MOSUNNY   88  75  66 N3        30.17F
BATON ROUGE    MOSUNNY   88  78  72 CALM      30.16S HX 101
N.O. INTL ARPT CLOUDY    89  77  67 NE6       30.17R HX 101
SLIDELL        SUNNY     91  77  63 NE7       30.16S HX 104
$$

MARINE REPORTS

STATION/POSITION TIME  SKY/WX   TEMP    WIND        PRES    VSBY
                                AIR SEA DIR/SP/G
                 (UTC)          (F)     (DEG/KT/KT) (MB)    (MI)
BUOY 30 S HIGH I 1550            85 86  150/  6/  8 1020.8R
WVE H/P(F/S)=  2/ 5

SEA RIM ST PARK  1600            86     160/  4/  6 1021.7R
PORT ARTHUR      1500               86  170/  2/  5 1020.8R
SABINE PASS N    1500            85 87  130/  7/  7 1022.1R
TEXAS POINT      NOT AVBL
CALCASIEU PASS   1500            85 86  220/  3/  3 1020.4R
LK CHARLES BEACH 1500            83 82              1021.6R
MARSH ISLAND     1500            85                   N/A
FRESH WATER LOCK 1500            86 91  340/  3/  5 1021.8R
AMERADA PASS     1500            86 86   10/  2/  5 1021.2S
$$




USA.gov is the U.S. government's official web portal to all federal, state and local government web resources and services.